Weather Roundup
Issued by NWS

Home | Current Version | Previous Version | Graphics & Text | Print | Product List | Glossary Off
Versions: 1 2 3 4 5 6 7 8 9 10 11 12 13 14 15 16 17 18 19 20 21 22 23 24 25 26 27 28 29 30 31 32 33 34 35 36 37 38 39 40 41 42 43 44 45 46 47 48 49 50

000
NZUS93 KARX 180210
HRRWXR

CURRENT HOURLY OBSERVATIONS ACROSS
MUCH OF THE UPPER MISSISSIPPI VALLEY
NATIONAL WEATHER SERVICE LA CROSSE WI
900 PM CDT THU APR 17 2014


...SOUTHEAST MINNESOTA...


CITY           SKY/WX    TMP DP  RH WIND       PRES   REMARKS
ROCHESTER      CLEAR     33  26  75 CALM      30.30R
ROCHESTER/MAYO FAIR      36  26  69 CALM      30.31R
WINONA         CLOUDY    37  30  75 NE5       30.32R WCI  34
AUSTIN         PTCLDY    34  28  80 CALM      30.30R
ALBERT LEA     CLEAR     34  30  86 CALM      30.30R
DODGE CENTER   CLEAR     36  32  87 CALM      30.30R
PRESTON        CLOUDY    35  29  78 N6        30.30R WCI  30
OWATONNA       CLEAR     34  28  80 CALM      30.30S
FARIBAULT      CLEAR     37  27  65 CALM      30.30S
$$

...ELSEWHERE IN MINNESOTA...


CITY           SKY/WX    TMP DP  RH WIND       PRES   REMARKS
MINNEAPOLIS    CLEAR     37  25  61 W5        30.31R WCI  33
INTNL FALLS    CLEAR     29  19  66 E6        30.27R WCI  23
DULUTH         PTCLDY    32  20  61 N3        30.27R
RED WING       CLEAR     32  27  80 CALM      30.30R
REDWOOD FALLS  CLEAR     34  25  69 W3        30.30S
MANKATO        CLEAR     36  27  69 N6        30.31R WCI  31
WORTHINGTON    PTCLDY    34  23  64 NE5       30.29S WCI  30
FAIRMONT       PTCLDY    37  28  70 N5        30.31R WCI  34
$$

...SOUTHWEST WISCONSIN...


CITY           SKY/WX    TMP DP  RH WIND       PRES   REMARKS
LA CROSSE      CLOUDY    40  29  64 N7        30.30R
PRAIRIE DU CHI CLEAR     39  30  70 NW8       30.29R WCI  33
BOSCOBEL       CLEAR     41  31  67 N7        30.29R
LONE ROCK      CLEAR     43  33  68 N9        30.27R
PLATTEVILLE    CLEAR     42  33  70 NW6       30.26R
FORT MC COY    CLOUDY    39  29  67 NW5       30.30S
CAMP DOUGLAS   CLOUDY    38  31  74 NW6       30.29R WCI  34
VIROQUA        CLOUDY    37  31  80 N7        30.27S WCI  31
WIS DELLS      CLEAR     38  32  78 N3        30.27R
$$

...ELSEWHERE IN WISCONSIN...


CITY           SKY/WX    TMP DP  RH WIND       PRES   REMARKS
MILWAUKEE      CLOUDY    48  37  65 S3        30.25R
MADISON        PTCLDY    42  34  73 N9        30.27R
GREEN BAY      PTCLDY    42  34  73 NW7       30.26R
EAU CLAIRE     CLEAR     33  26  75 NE3       30.30R
BLACK RVR FLS  CLOUDY    39  28  64 CALM      30.29R
MEDFORD        CLOUDY    32  27  81 N5        30.27R WCI  27
WAUSAU         CLOUDY    36  28  73 N7        30.26R WCI  30
WIS RAPIDS     CLOUDY    38  30  73 NW3       30.29R
MARSHFIELD     CLOUDY    36  28  73 NW9       30.27R WCI  29
RICE LAKE      PTCLDY    33  25  74 NE5       30.31R WCI  28
$$

...NORTHEAST IOWA...


CITY           SKY/WX    TMP DP  RH WIND       PRES   REMARKS
WATERLOO       CLEAR     36  30  79 N6        30.29R WCI  31
DUBUQUE        FAIR      39  32  76 N7        30.26R WCI  34
DECORAH        CLOUDY    36  30  80 N5        30.29R WCI  32
MASON CITY     CLEAR     31  28  89 N6        30.31R WCI  25
CHARLES CITY   PTCLDY    36  30  80 N7        30.31R WCI  30
OELWEIN        CLEAR    N/A N/A N/A N7        30.30R
$$

...ELSEWHERE IN IOWA...


CITY           SKY/WX    TMP DP  RH WIND       PRES   REMARKS
DES MOINES     CLEAR     50  29  44 E6        30.28R
IOWA CITY      CLEAR     42  32  67 CALM      30.29R
FORT DODGE     CLEAR     39  28  65 NE7       30.30R WCI  34
MARSHALLTOWN   CLEAR     37  31  78 NE8       30.29R WCI  31
CEDAR RAPIDS   CLEAR     41  30  65 NW7       30.27R
$$

...NORTHERN ILLINOIS...


CITY           SKY/WX    TMP DP  RH WIND       PRES   REMARKS
CHICAGO-OHARE  CLOUDY    54  37  52 W6        30.24R
DUPAGE         CLOUDY    51  39  63 W6        30.24R
CHICAGO-MIDWAY CLOUDY    56  39  53 W8        30.25R
MOLINE         CLOUDY    46  34  62 SW3       30.27R
ROCKFORD       CLOUDY    50  37  61 SW3       30.26R
STERLING       CLOUDY    50  37  62 W8        30.26R
PEORIA         CLOUDY    51  36  56 NW5       30.27S
$$

NOTE: "FAIR" INDICATES FEW OR NO CLOUDS BELOW 12,000 FEET WITH NO
SIGNIFICANT WEATHER AND/OR OBSTRUCTIONS TO VISIBILITY. WIND
SPEEDS ARE IN MILES-PER-HOUR.



USA.gov is the U.S. government's official web portal to all federal, state and local government web resources and services.